FENGYUN 1C DEB, 32323

Orbit data source: Space-Track

FENGYUN 1C DEB, 32323 is space debris in SSO originally from a launch on Mon, 10 May 1999 UTC launched from the Taiyaun Space Center, China (TSC). Fengyun 1C debris stems from the Chinese weather satellite Fengyun-1C, which was intentionally destroyed by a Chinese anti-satellite missile in 2007. This event dramatically increased the amount of space debris, with thousands of trackable fragments posing hazards to satellites and human spaceflight. The Fengyun 1C debris cloud has become a focal point in discussions about space sustainability and the need for international regulations to prevent the creation of new debris.

Loading next visibility...
Identifier
32323, 1999-025CXQ
Orbit
SSO
Country
Flag of CNCN / PRC
Related business
Manufacturer
Unknown
Mission
Spacecraft
Bus & Motor
Unknown
Mass
Unknown
Launch date (UTC)
1999-05-10 (27 years ago)
Launch vehicle
Unknown
Launch site
Taiyaun Space Center, China (TSC)
Object type
Payload
Rocket body
Debris
Shape & HBR
Unknown shape, 0.1 m
Radar Cross Section
Small (<0.1 m²)

Expand to show TLE details & history
Last TLE update: 1 month ago

TLE from 1 month ago
0 FENGYUN 1C DEB
1 32323U 99025CXQ 26147.16766304  .00005256  00000-0  33679-2 0  9999
2 32323  98.5778 284.3934 0154516 109.6960 252.0949 13.97994958625801
Epoch: 2026-05-27T04:01Z
TLE epoch observation values (Epoch: 2026-05-27T04:01:26.086Z)
Latitude
0.00002°
Longitude
-20.69593°
Altitude
939.784 km
Speed
7.364 km/s
True Right ascension
18h 57m 34s
True Declination
0° 00' 00"
Sunlit
Object was in full shadow at epoch
Visualization orbit readout
Latitude
Unknown
Longitude
Unknown
Altitude
Unknown
Speed
Unknown
Apparent Right ascension
Unknown
Apparent Declination
Unknown
Sunlit
N/A
Visualization observer readout
Local Sidereal Time
01:59:39
Azimuth
Unknown
Elevation
Unknown
Doppler factor
Unknown
Orbital elements
Apogee altitude
1,010.354 km
Perigee altitude
785.501 km
Semi-major axis
7,276.064 km
Eccentricity
0.01545
Inclination
98.5778°
RAAN
284.3934°
Arg. of periapsis
109.696°
True anomaly
250.42022°
Mean anomaly
252.0949°
Eccentric anomaly
251.25654°
Mean motion
3.49702 °/min
Orbital period
102.94 mins
BSTAR
0.0033679
Loading maneuver chart data...
Computing Atmospheric mass density...

Documentation

Showing up to 5 results
|